Regional Weather Roundup
Issued by NWS Bismarck, ND

Home | Current Version | Previous Version | Graphics & Text | Print | Product List | Glossary On
Versions: 1 2 3 4 5 6 7 8 9 10 11 12 13 14 15 16 17 18 19 20 21 22 23 24 25 26 27 28 29 30 31 32 33 34 35 36 37 38 39 40 41 42 43 44 45 46 47 48 49 50
000
ASUS43 KBIS 212059
RWRBIS

NWR BROADCAST TEXT
NATIONAL WEATHER SERVICE BISMARCK ND
300 PM CST SUN DEC 21 2014

NOTE: "FAIR" INDICATES FEW OR NO CLOUDS BELOW 12,000 FEET WITH NO
SIGNIFICANT WEATHER AND/OR OBSTRUCTIONS TO VISIBILITY.


CITY           SKY/WX    TMP DP  RH WIND       PRES   REMARKS
WILLISTON      CLOUDY    36  27  69 S6        29.33F
MINOT          CLOUDY    37  31  78 SE8       29.39F
MINOT AFB      NOT AVBL
BISMARCK       SUNNY     38  29  70 SE8       29.43F
DICKINSON      CLOUDY    43  28  55 S10       29.33F
GARRISON         N/A     37  31  78 E7        29.39F
HETTINGER ARPT CLOUDY    41  27  57 SW5       29.38F
JAMESTOWN      NOT AVBL
CARRINGTON     CLOUDY    30  30 100 MISG      29.51S FOG
CROSBY         FAIR      36  32  87 E7        29.33F
$$

CITY           SKY/WX    TMP DP  RH WIND       PRES   REMARKS
GRAND FORKS    CLOUDY    32  30  92 S18       29.59F FOG
GRAND FORKS AF NOT AVBL
DEVILS LAKE    CLOUDY    30  25  80 SE12      29.49F
FARGO          CLOUDY    34  30  85 SE13G25   29.59F FOG
GWINNER        MOCLDY    37  36  93 SE16      29.55F
$$

CITY           SKY/WX    TMP DP  RH WIND       PRES   REMARKS
ABERDEEN       CLOUDY    34  30  85 S16       29.52F
MOBRIDGE       SUNNY     41  29  62 SE9       29.41F
BUFFALO          N/A     40  29  64 SW6       29.32F
RAPID CITY     CLOUDY    48  27  44 N10       29.38S
GLASGOW        LGT RAIN  33  30  88 E3        29.30S
SIDNEY         PTSUNNY   36  28  75 CALM      29.35F
WOLF POINT     CLOUDY    33  27  78 CALM      29.31F
GLENDIVE       CLOUDY    34  32  93 S7        29.33F
MILES CITY     CLOUDY    40  33  76 W5        29.34R
BAKER          LGT RAIN  38  37  97 S9        29.35F
$$

CITY           SKY/WX    TMP DP  RH WIND       PRES   REMARKS
BILLINGS       PTSUNNY   51  22  31 W33G47    29.42R
GREAT FALLS    CLOUDY    45  25  45 W24G30    29.44R
$$



USA.gov is the U.S. government's official web portal to all federal, state and local government web resources and services.